Location: Spring Creek
(38.2870°N, 100.2160°W)
Time: 04:01:52
(UTC+00:00)

Cosmos 2058 Rocket - Pass Details

Date: 08 May 2021
Orbit: 611 x 639 km, 82.5° (Epoch: 22 June)

Event Time Altitude Azimuth Distance (km) Brightness Sun altitude
Rises 11:00:29 0° 356° (N) 2,937 6.9 -7.1°
Reaches altitude 10° 11:02:46 10° 360° (N) 2,028 6.1 -6.7°
Maximum altitude 11:07:14 62° 81° (E) 720 3.8 -6.0°
Drops below altitude 10° 11:11:40 10° 162° (SSE) 2,021 5.6 -5.2°
Sets 11:13:55 0° 166° (SSE) 2,925 6.4 -4.8°
